Wetterdaten: aktuell Donnerstag, 02.07.2020 07:42
Datum Zeit Temp. 2m Temp. 5cm Temp. Innen Feuchte 2m Feuchte Inne Luftdruck Regen Wind Richtung Richtung Taupunkt Windchill Windben
02.07.2020 07:42 17,7 C 19,1 C 24,7 C 85 % 64 % 1010,7 hPa 0,0 l/m 0,0 km/h (0 Bft) O-SO 112 15,1 C 17,7 C 0,0 km/h (0 Bft)
02.07.2020 07:40 17,6 C 19,1 C 24,6 C 85 % 64 % 1010,7 hPa 0,0 l/m 0,0 km/h (0 Bft) SO 135 15,0 C 17,6 C 0,0 km/h (0 Bft)
02.07.2020 07:38 17,5 C 19,0 C 24,6 C 85 % 64 % 1010,7 hPa 0,0 l/m 0,0 km/h (0 Bft) SO 135 14,9 C 17,5 C 0,0 km/h (0 Bft)
02.07.2020 07:36 17,3 C 19,0 C 24,6 C 85 % 64 % 1010,7 hPa 0,0 l/m 0,7 km/h (0 Bft) SO 135 14,8 C 17,3 C 0,0 km/h (0 Bft)
02.07.2020 07:34 17,1 C 18,9 C 24,6 C 85 % 64 % 1010,0 hPa 0,0 l/m 1,0 km/h (0 Bft) SO 135 14,6 C 17,1 C 0,0 km/h (0 Bft)
02.07.2020 07:32 16,8 C 18,9 C 24,7 C 85 % 64 % 1010,0 hPa 0,0 l/m 1,2 km/h (1 Bft) NO 45 14,3 C 16,8 C 0,0 km/h (0 Bft)
02.07.2020 07:30 16,8 C 18,9 C 24,7 C 85 % 64 % 1010,0 hPa 0,0 l/m 1,2 km/h (1 Bft) N-NW 337 14,3 C 16,8 C 0,0 km/h (0 Bft)
02.07.2020 07:28 16,5 C 18,9 C 24,6 C 85 % 64 % 1010,0 hPa 0,0 l/m 1,2 km/h (1 Bft) N-NO 22 14,0 C 16,5 C 3,6 km/h (1 Bft)
02.07.2020 07:26 16,5 C 19,0 C 24,7 C 85 % 64 % 1010,0 hPa 0,0 l/m 1,4 km/h (1 Bft) N-NO 22 14,0 C 16,5 C 4,6 km/h (1 Bft)
02.07.2020 07:24 16,4 C 19,0 C 24,6 C 85 % 64 % 1010,0 hPa 0,0 l/m 0,7 km/h (0 Bft) NO 45 13,9 C 16,4 C 4,6 km/h (1 Bft)
02.07.2020 07:22 16,5 C 18,9 C 24,6 C 85 % 64 % 1010,0 hPa 0,0 l/m 0,2 km/h (0 Bft) N 360 14,0 C 16,5 C 0,0 km/h (0 Bft)
02.07.2020 07:20 16,3 C 18,9 C 24,7 C 85 % 64 % 1010,0 hPa 0,0 l/m 0,2 km/h (0 Bft) NW 315 13,8 C 16,3 C 0,0 km/h (0 Bft)
02.07.2020 07:18 16,3 C 18,9 C 24,7 C 85 % 64 % 1010,0 hPa 0,0 l/m 0,2 km/h (0 Bft) W 270 13,8 C 16,3 C 2,9 km/h (1 Bft)
02.07.2020 07:16 16,3 C 18,9 C 24,6 C 85 % 64 % 1010,0 hPa 0,0 l/m 0,2 km/h (0 Bft) NW 315 13,8 C 16,3 C 2,9 km/h (1 Bft)
02.07.2020 07:14 16,3 C 18,9 C 24,7 C 85 % 64 % 1009,9 hPa 0,0 l/m 0,2 km/h (0 Bft) N-NO 22 13,8 C 16,3 C 0,0 km/h (0 Bft)
02.07.2020 07:12 16,2 C 19,1 C 24,7 C 85 % 64 % 1009,9 hPa 0,0 l/m 0,2 km/h (0 Bft) N-NO 22 13,7 C 16,2 C 0,0 km/h (0 Bft)
02.07.2020 07:10 16,2 C 19,1 C 24,6 C 85 % 64 % 1009,9 hPa 0,0 l/m 0,2 km/h (0 Bft) N-NO 22 13,7 C 16,2 C 0,0 km/h (0 Bft)
02.07.2020 07:08 16,3 C 19,0 C 24,7 C 85 % 64 % 1009,9 hPa 0,0 l/m 0,2 km/h (0 Bft) N-NW 337 13,8 C 16,3 C 0,0 km/h (0 Bft)
02.07.2020 07:06 16,3 C 19,0 C 24,7 C 85 % 64 % 1009,9 hPa 0,0 l/m 0,2 km/h (0 Bft) N-NO 22 13,8 C 16,3 C 0,0 km/h (0 Bft)
02.07.2020 07:04 16,3 C 19,0 C 24,6 C 85 % 64 % 1009,9 hPa 0,0 l/m 0,0 km/h (0 Bft) W-SW 247 13,8 C 16,3 C 0,0 km/h (0 Bft)
02.07.2020 07:02 16,1 C 19,1 C 24,7 C 85 % 64 % 1009,9 hPa 0,0 l/m 0,0 km/h (0 Bft) N-NO 22 13,6 C 16,1 C 0,0 km/h (0 Bft)
02.07.2020 07:00 16,1 C 19,1 C 24,6 C 85 % 64 % 1009,9 hPa 0,0 l/m 0,2 km/h (0 Bft) N-NW 337 13,6 C 16,1 C 0,0 km/h (0 Bft)
02.07.2020 06:58 16,3 C 19,1 C 24,7 C 85 % 64 % 1009,9 hPa 0,0 l/m 0,2 km/h (0 Bft) N-NW 337 13,8 C 16,3 C 2,7 km/h (1 Bft)
02.07.2020 06:56 16,3 C 19,0 C 24,7 C 85 % 64 % 1009,9 hPa 0,0 l/m 0,2 km/h (0 Bft) NW 315 13,8 C 16,3 C 2,7 km/h (1 Bft)
02.07.2020 06:54 16,3 C 19,0 C 24,7 C 85 % 64 % 1009,6 hPa 0,0 l/m 0,0 km/h (0 Bft) W 270 13,8 C 16,3 C 0,0 km/h (0 Bft)
02.07.2020 06:52 16,3 C 19,0 C 24,7 C 85 % 64 % 1009,6 hPa 0,0 l/m 0,0 km/h (0 Bft) NW 315 13,8 C 16,3 C 0,0 km/h (0 Bft)
02.07.2020 06:50 16,2 C 18,9 C 24,7 C 85 % 64 % 1009,6 hPa 0,0 l/m 0,0 km/h (0 Bft) NW 315 13,7 C 16,2 C 0,0 km/h (0 Bft)
02.07.2020 06:49 16,2 C 18,9 C 24,7 C 85 % 64 % 1009,6 hPa 0,0 l/m 0,0 km/h (0 Bft) NW 315 13,7 C 16,2 C 0,0 km/h (0 Bft)
02.07.2020 06:45 16,2 C 18,7 C 24,7 C 85 % 64 % 1009,6 hPa 0,0 l/m 0,0 km/h (0 Bft) N 360 13,7 C 16,2 C 0,0 km/h (0 Bft)
02.07.2020 06:44 16,0 C 18,7 C 24,7 C 85 % 64 % 1009,6 hPa 0,0 l/m 0,0 km/h (0 Bft) N-NO 22 13,5 C 16,0 C 0,0 km/h (0 Bft)
02.07.2020 06:42 15,9 C 18,7 C 24,7 C 85 % 63 % 1009,6 hPa 0,0 l/m 0,0 km/h (0 Bft) N-NO 22 13,4 C 15,9 C 0,0 km/h (0 Bft)
02.07.2020 06:40 16,0 C 18,6 C 24,7 C 85 % 63 % 1009,6 hPa 0,0 l/m 0,0 km/h (0 Bft) N-NO 22 13,5 C 16,0 C 0,0 km/h (0 Bft)
02.07.2020 06:38 16,0 C 18,6 C 24,7 C 85 % 63 % 1009,6 hPa 0,0 l/m 0,0 km/h (0 Bft) N-NO 22 13,5 C 16,0 C 0,0 km/h (0 Bft)
02.07.2020 06:36 15,9 C 18,6 C 24,7 C 85 % 63 % 1009,6 hPa 0,0 l/m 0,0 km/h (0 Bft) N-NO 22 13,4 C 15,9 C 0,0 km/h (0 Bft)
02.07.2020 06:34 15,8 C 18,5 C 24,7 C 85 % 63 % 1009,6 hPa 0,0 l/m 0,0 km/h (0 Bft) N-NO 22 13,3 C 15,8 C 0,0 km/h (0 Bft)
02.07.2020 06:32 15,8 C 18,5 C 24,7 C 85 % 63 % 1009,6 hPa 0,0 l/m 0,0 km/h (0 Bft) N-NO 22 13,3 C 15,8 C 0,0 km/h (0 Bft)
02.07.2020 06:30 15,8 C 18,5 C 24,7 C 85 % 63 % 1009,6 hPa 0,0 l/m 0,0 km/h (0 Bft) O 90 13,3 C 15,8 C 0,0 km/h (0 Bft)
02.07.2020 06:28 15,8 C 18,4 C 24,7 C 85 % 64 % 1009,6 hPa 0,0 l/m 0,0 km/h (0 Bft) O 90 13,3 C 15,8 C 0,0 km/h (0 Bft)
02.07.2020 06:26 15,8 C 18,4 C 24,7 C 85 % 64 % 1009,6 hPa 0,0 l/m 0,0 km/h (0 Bft) O-NO 67 13,3 C 15,8 C 0,0 km/h (0 Bft)
02.07.2020 06:24 15,8 C 18,4 C 24,8 C 85 % 64 % 1009,6 hPa 0,0 l/m 0,0 km/h (0 Bft) O 90 13,3 C 15,8 C 0,0 km/h (0 Bft)
02.07.2020 06:22 15,8 C 18,3 C 24,8 C 85 % 64 % 1009,6 hPa 0,0 l/m 0,2 km/h (0 Bft) N-NO 22 13,3 C 15,8 C 0,0 km/h (0 Bft)
02.07.2020 06:20 15,8 C 18,3 C 24,8 C 85 % 64 % 1009,6 hPa 0,0 l/m 0,2 km/h (0 Bft) NO 45 13,3 C 15,8 C 0,0 km/h (0 Bft)
02.07.2020 06:18 15,7 C 18,4 C 24,8 C 85 % 64 % 1009,6 hPa 0,0 l/m 0,2 km/h (0 Bft) O-SO 112 13,2 C 15,7 C 0,0 km/h (0 Bft)
02.07.2020 06:16 15,7 C 18,3 C 24,9 C 85 % 64 % 1009,6 hPa 0,0 l/m 0,2 km/h (0 Bft) SO 135 13,2 C 15,7 C 0,0 km/h (0 Bft)
02.07.2020 06:14 15,7 C 18,3 C 24,9 C 85 % 64 % 1009,4 hPa 0,0 l/m 0,5 km/h (0 Bft) NO 45 13,2 C 15,7 C 2,7 km/h (1 Bft)
02.07.2020 06:12 15,7 C 18,2 C 25,1 C 85 % 66 % 1009,4 hPa 0,0 l/m 0,5 km/h (0 Bft) NO 45 13,2 C 15,7 C 3,9 km/h (1 Bft)
02.07.2020 06:10 15,6 C 17,7 C 25,1 C 85 % 66 % 1009,4 hPa 0,0 l/m 2,4 km/h (1 Bft) O 90 13,1 C 15,6 C 3,9 km/h (1 Bft)
02.07.2020 06:08 15,6 C 17,7 C 25,1 C 85 % 66 % 1009,4 hPa 0,0 l/m 2,4 km/h (1 Bft) O 90 13,1 C 15,6 C 3,9 km/h (1 Bft)
02.07.2020 06:06 15,6 C 17,7 C 25,1 C 85 % 66 % 1009,4 hPa 0,0 l/m 2,4 km/h (1 Bft) O 90 13,1 C 15,6 C 3,9 km/h (1 Bft)
02.07.2020 06:04 15,6 C 17,7 C 25,1 C 85 % 66 % 1009,4 hPa 0,0 l/m 2,4 km/h (1 Bft) O 90 13,1 C 15,6 C 3,9 km/h (1 Bft)
02.07.2020 06:02 15,6 C 17,7 C 25,1 C 85 % 66 % 1009,4 hPa 0,0 l/m 2,4 km/h (1 Bft) O 90 13,1 C 15,6 C 4,8 km/h (1 Bft)
02.07.2020 06:00 15,6 C 17,7 C 25,2 C 85 % 67 % 1009,4 hPa 0,0 l/m 2,4 km/h (1 Bft) O 90 13,1 C 15,6 C 4,8 km/h (1 Bft)
02.07.2020 05:58 15,6 C 17,7 C 25,1 C 85 % 67 % 1009,4 hPa 0,0 l/m 1,9 km/h (1 Bft) O 90 13,1 C 15,6 C 3,9 km/h (1 Bft)
02.07.2020 05:56 15,6 C 17,7 C 25,2 C 85 % 67 % 1009,4 hPa 0,0 l/m 1,7 km/h (1 Bft) O-NO 67 13,1 C 15,6 C 2,4 km/h (1 Bft)
02.07.2020 05:54 15,6 C 17,7 C 25,2 C 85 % 67 % 1009,1 hPa 0,0 l/m 1,4 km/h (1 Bft) O-NO 67 13,1 C 15,6 C 2,7 km/h (1 Bft)
02.07.2020 05:52 15,7 C 17,5 C 25,2 C 85 % 67 % 1009,1 hPa 0,0 l/m 1,7 km/h (1 Bft) O-NO 67 13,2 C 15,7 C 3,6 km/h (1 Bft)
02.07.2020 05:50 15,7 C 17,5 C 25,2 C 85 % 67 % 1009,1 hPa 0,0 l/m 1,7 km/h (1 Bft) O-NO 67 13,2 C 15,7 C 3,6 km/h (1 Bft)
02.07.2020 05:48 15,7 C 17,5 C 25,2 C 85 % 67 % 1009,1 hPa 0,0 l/m 1,4 km/h (1 Bft) O-SO 112 13,2 C 15,7 C 3,1 km/h (1 Bft)
02.07.2020 05:46 15,7 C 17,5 C 25,1 C 85 % 67 % 1009,1 hPa 0,0 l/m 1,2 km/h (1 Bft) O-NO 67 13,2 C 15,7 C 0,0 km/h (0 Bft)
02.07.2020 05:44 15,7 C 17,6 C 25,1 C 85 % 67 % 1009,1 hPa 0,0 l/m 1,7 km/h (1 Bft) O-SO 112 13,2 C 15,7 C 2,7 km/h (1 Bft)
02.07.2020 05:42 15,7 C 17,7 C 25,2 C 85 % 67 % 1009,1 hPa 0,0 l/m 1,9 km/h (1 Bft) O-SO 112 13,2 C 15,7 C 2,7 km/h (1 Bft)
02.07.2020 05:40 15,7 C 17,7 C 25,1 C 85 % 67 % 1009,1 hPa 0,0 l/m 1,2 km/h (1 Bft) O-SO 112 13,2 C 15,7 C 3,4 km/h (1 Bft)
02.07.2020 05:38 15,7 C 17,7 C 25,2 C 85 % 67 % 1009,1 hPa 0,0 l/m 1,2 km/h (1 Bft) SO 135 13,2 C 15,7 C 3,4 km/h (1 Bft)
02.07.2020 05:36 15,7 C 17,9 C 25,2 C 85 % 67 % 1009,1 hPa 0,0 l/m 1,0 km/h (0 Bft) SO 135 13,2 C 15,7 C 3,4 km/h (1 Bft)
02.07.2020 05:34 15,7 C 17,9 C 25,2 C 85 % 67 % 1008,9 hPa 0,0 l/m 1,0 km/h (0 Bft) SO 135 13,2 C 15,7 C 3,4 km/h (1 Bft)
02.07.2020 05:32 15,7 C 18,0 C 25,2 C 85 % 67 % 1008,9 hPa 0,0 l/m 1,0 km/h (0 Bft) SO 135 13,2 C 15,7 C 2,7 km/h (1 Bft)
02.07.2020 05:30 15,7 C 18,1 C 25,2 C 85 % 67 % 1008,9 hPa 0,0 l/m 1,4 km/h (1 Bft) SW 225 13,2 C 15,7 C 3,1 km/h (1 Bft)
02.07.2020 05:28 15,8 C 18,1 C 25,2 C 85 % 67 % 1008,9 hPa 0,0 l/m 1,7 km/h (1 Bft) S 180 13,3 C 15,8 C 3,1 km/h (1 Bft)
02.07.2020 05:26 15,8 C 18,1 C 25,2 C 85 % 67 % 1008,9 hPa 0,0 l/m 2,4 km/h (1 Bft) S 180 13,3 C 15,8 C 0,0 km/h (0 Bft)
02.07.2020 05:24 15,7 C 18,2 C 25,2 C 85 % 67 % 1008,9 hPa 0,0 l/m 2,9 km/h (1 Bft) S-SO 157 13,2 C 15,7 C 4,1 km/h (1 Bft)
02.07.2020 05:22 15,7 C 18,3 C 25,2 C 85 % 67 % 1008,9 hPa 0,0 l/m 3,4 km/h (1 Bft) S 180 13,2 C 15,7 C 4,1 km/h (1 Bft)
02.07.2020 05:20 15,8 C 18,3 C 25,2 C 85 % 67 % 1008,9 hPa 0,0 l/m 3,1 km/h (1 Bft) S-SO 157 13,3 C 15,8 C 3,9 km/h (1 Bft)
02.07.2020 05:18 15,8 C 18,3 C 25,2 C 85 % 67 % 1008,9 hPa 0,0 l/m 3,1 km/h (1 Bft) SW 225 13,3 C 15,8 C 4,1 km/h (1 Bft)
02.07.2020 05:16 15,8 C 18,3 C 25,2 C 85 % 67 % 1008,9 hPa 0,0 l/m 2,9 km/h (1 Bft) S 180 13,3 C 15,8 C 4,1 km/h (1 Bft)
02.07.2020 05:14 15,8 C 18,3 C 25,2 C 85 % 67 % 1008,9 hPa 0,0 l/m 3,1 km/h (1 Bft) S-SW 202 13,3 C 15,8 C 6,3 km/h (2 Bft)
02.07.2020 05:12 15,8 C 18,2 C 25,2 C 85 % 67 % 1008,9 hPa 0,0 l/m 3,6 km/h (1 Bft) S 180 13,3 C 15,8 C 6,3 km/h (2 Bft)
02.07.2020 05:10 15,8 C 18,1 C 25,2 C 85 % 67 % 1008,9 hPa 0,0 l/m 3,9 km/h (1 Bft) S-SO 157 13,3 C 15,8 C 5,6 km/h (1 Bft)
02.07.2020 05:08 15,8 C 18,2 C 25,2 C 85 % 67 % 1008,9 hPa 0,0 l/m 4,3 km/h (1 Bft) S-SO 157 13,3 C 15,8 C 10,6 km/h (2 Bft)
02.07.2020 05:06 15,8 C 18,3 C 25,2 C 85 % 67 % 1008,9 hPa 0,0 l/m 4,3 km/h (1 Bft) S-SO 157 13,3 C 15,8 C 10,6 km/h (2 Bft)
02.07.2020 05:04 15,7 C 18,2 C 25,2 C 85 % 67 % 1008,9 hPa 0,0 l/m 4,1 km/h (1 Bft) S 180 13,2 C 15,7 C 10,6 km/h (2 Bft)
02.07.2020 05:02 15,7 C 18,2 C 25,2 C 85 % 67 % 1008,9 hPa 0,0 l/m 3,1 km/h (1 Bft) S-SO 157 13,2 C 15,7 C 8,7 km/h (2 Bft)
02.07.2020 05:00 15,7 C 18,1 C 25,2 C 85 % 67 % 1008,9 hPa 0,0 l/m 3,1 km/h (1 Bft) S 180 13,2 C 15,7 C 8,7 km/h (2 Bft)
02.07.2020 04:58 15,6 C 18,0 C 25,2 C 85 % 67 % 1008,9 hPa 0,0 l/m 2,4 km/h (1 Bft) S-SW 202 13,1 C 15,6 C 3,9 km/h (1 Bft)
02.07.2020 04:56 15,5 C 18,0 C 25,2 C 85 % 67 % 1008,9 hPa 0,0 l/m 2,2 km/h (1 Bft) S 180 13,0 C 15,5 C 3,6 km/h (1 Bft)
02.07.2020 04:54 15,5 C 17,9 C 25,2 C 85 % 67 % 1008,7 hPa 0,0 l/m 2,4 km/h (1 Bft) S-SO 157 13,0 C 15,5 C 4,8 km/h (1 Bft)
02.07.2020 04:52 15,5 C 17,9 C 25,2 C 85 % 67 % 1008,7 hPa 0,0 l/m 2,9 km/h (1 Bft) S 180 13,0 C 15,5 C 4,8 km/h (1 Bft)
02.07.2020 04:50 15,5 C 17,7 C 25,2 C 84 % 67 % 1008,7 hPa 0,0 l/m 2,9 km/h (1 Bft) S-SO 157 12,8 C 15,5 C 3,9 km/h (1 Bft)
02.07.2020 04:48 15,5 C 17,5 C 25,2 C 84 % 67 % 1008,7 hPa 0,0 l/m 2,4 km/h (1 Bft) S-SO 157 12,8 C 15,5 C 3,1 km/h (1 Bft)
02.07.2020 04:46 15,5 C 17,5 C 25,2 C 84 % 67 % 1008,7 hPa 0,0 l/m 2,2 km/h (1 Bft) S-SO 157 12,8 C 15,5 C 4,3 km/h (1 Bft)
02.07.2020 04:44 15,5 C 17,4 C 25,2 C 84 % 67 % 1008,7 hPa 0,0 l/m 1,9 km/h (1 Bft) SW 225 12,8 C 15,5 C 4,3 km/h (1 Bft)
02.07.2020 04:42 15,5 C 17,1 C 25,2 C 84 % 67 % 1008,7 hPa 0,0 l/m 1,2 km/h (1 Bft) S-SW 202 12,8 C 15,5 C 5,1 km/h (1 Bft)
02.07.2020 04:40 15,4 C 17,1 C 25,2 C 84 % 67 % 1008,7 hPa 0,0 l/m 0,7 km/h (0 Bft) S-SW 202 12,7 C 15,4 C 5,1 km/h (1 Bft)
02.07.2020 04:38 15,4 C 17,2 C 25,2 C 84 % 67 % 1008,7 hPa 0,0 l/m 0,5 km/h (0 Bft) S 180 12,7 C 15,4 C 3,1 km/h (1 Bft)
02.07.2020 04:36 15,4 C 17,5 C 25,2 C 84 % 67 % 1008,7 hPa 0,0 l/m 0,5 km/h (0 Bft) S-SW 202 12,7 C 15,4 C 3,1 km/h (1 Bft)
02.07.2020 04:34 15,3 C 17,6 C 25,2 C 84 % 67 % 1008,8 hPa 0,0 l/m 0,7 km/h (0 Bft) S-SW 202 12,6 C 15,3 C 0,0 km/h (0 Bft)
02.07.2020 04:32 15,3 C 17,6 C 25,2 C 84 % 67 % 1008,8 hPa 0,0 l/m 1,4 km/h (1 Bft) O-SO 112 12,6 C 15,3 C 0,0 km/h (0 Bft)
02.07.2020 04:30 15,3 C 17,7 C 25,2 C 84 % 67 % 1008,8 hPa 0,0 l/m 1,9 km/h (1 Bft) O-SO 112 12,6 C 15,3 C 3,1 km/h (1 Bft)
02.07.2020 04:28 15,3 C 17,6 C 25,2 C 84 % 67 % 1008,8 hPa 0,0 l/m 2,4 km/h (1 Bft) S 180 12,6 C 15,3 C 3,1 km/h (1 Bft)
02.07.2020 04:26 15,4 C 17,5 C 25,2 C 84 % 67 % 1008,8 hPa 0,0 l/m 2,9 km/h (1 Bft) S-SO 157 12,7 C 15,4 C 3,1 km/h (1 Bft)
02.07.2020 04:24 15,4 C 17,5 C 25,2 C 84 % 67 % 1008,8 hPa 0,0 l/m 3,1 km/h (1 Bft) SO 135 12,7 C 15,4 C 3,4 km/h (1 Bft)
02.07.2020 04:22 15,4 C 17,5 C 25,2 C 84 % 67 % 1008,8 hPa 0,0 l/m 2,9 km/h (1 Bft) S-SO 157 12,7 C 15,4 C 3,9 km/h (1 Bft)
02.07.2020 04:20 15,5 C 17,5 C 25,2 C 84 % 67 % 1008,8 hPa 0,0 l/m 2,4 km/h (1 Bft) SO 135 12,8 C 15,5 C 4,1 km/h (1 Bft)
02.07.2020 04:18 15,5 C 17,5 C 25,3 C 84 % 67 % 1008,8 hPa 0,0 l/m 1,7 km/h (1 Bft) S-SO 157 12,8 C 15,5 C 5,3 km/h (1 Bft)
02.07.2020 04:16 15,6 C 17,4 C 25,2 C 84 % 67 % 1008,8 hPa 0,1 l/m 1,2 km/h (1 Bft) SO 135 12,9 C 15,6 C 5,3 km/h (1 Bft)
02.07.2020 04:14 15,6 C 17,4 C 25,3 C 84 % 67 % 1008,5 hPa 0,0 l/m 1,4 km/h (1 Bft) SO 135 12,9 C 15,6 C 2,9 km/h (1 Bft)
02.07.2020 04:12 15,7 C 17,4 C 25,2 C 84 % 67 % 1008,5 hPa 0,0 l/m 1,0 km/h (0 Bft) SO 135 13,0 C 15,7 C 2,9 km/h (1 Bft)
02.07.2020 04:10 15,7 C 17,4 C 25,3 C 84 % 67 % 1008,5 hPa 0,0 l/m 1,0 km/h (0 Bft) O-SO 112 13,0 C 15,7 C 2,9 km/h (1 Bft)
02.07.2020 04:08 15,7 C 17,6 C 25,3 C 84 % 67 % 1008,5 hPa 0,0 l/m 1,4 km/h (1 Bft) S-SO 157 13,0 C 15,7 C 2,7 km/h (1 Bft)
02.07.2020 04:06 15,8 C 17,6 C 25,3 C 84 % 67 % 1008,5 hPa 0,0 l/m 1,9 km/h (1 Bft) S-SO 157 13,1 C 15,8 C 3,6 km/h (1 Bft)
02.07.2020 04:04 15,8 C 17,5 C 25,3 C 84 % 67 % 1008,5 hPa 0,0 l/m 2,4 km/h (1 Bft) S 180 13,1 C 15,8 C 3,6 km/h (1 Bft)
02.07.2020 04:02 15,8 C 17,6 C 25,3 C 84 % 67 % 1008,5 hPa 0,0 l/m 2,7 km/h (1 Bft) S 180 13,1 C 15,8 C 3,1 km/h (1 Bft)
02.07.2020 04:00 15,8 C 17,5 C 25,3 C 84 % 67 % 1008,5 hPa 0,0 l/m 2,7 km/h (1 Bft) S-SO 157 13,1 C 15,8 C 4,6 km/h (1 Bft)
02.07.2020 03:58 15,8 C 17,5 C 25,3 C 84 % 67 % 1008,5 hPa 0,0 l/m 2,2 km/h (1 Bft) S 180 13,1 C 15,8 C 4,6 km/h (1 Bft)
02.07.2020 03:56 15,8 C 17,2 C 25,3 C 84 % 67 % 1008,5 hPa 0,0 l/m 1,4 km/h (1 Bft) S-SO 157 13,1 C 15,8 C 5,1 km/h (1 Bft)
02.07.2020 03:54 15,8 C 17,0 C 25,3 C 84 % 67 % 1008,8 hPa 0,0 l/m 1,0 km/h (0 Bft) S 180 13,1 C 15,8 C 5,1 km/h (1 Bft)
02.07.2020 03:52 15,8 C 16,9 C 25,3 C 84 % 67 % 1008,8 hPa 0,0 l/m 0,0 km/h (0 Bft) O 90 13,1 C 15,8 C 2,4 km/h (1 Bft)
02.07.2020 03:50 15,7 C 16,9 C 25,3 C 84 % 67 % 1008,8 hPa 0,0 l/m 0,0 km/h (0 Bft) O 90 13,0 C 15,7 C 0,0 km/h (0 Bft)
02.07.2020 03:48 15,7 C 17,0 C 25,3 C 84 % 67 % 1008,8 hPa 0,0 l/m 0,0 km/h (0 Bft) O 90 13,0 C 15,7 C 0,0 km/h (0 Bft)
02.07.2020 03:46 15,8 C 17,3 C 25,3 C 84 % 67 % 1008,8 hPa 0,0 l/m 0,2 km/h (0 Bft) O 90 13,1 C 15,8 C 0,0 km/h (0 Bft)
02.07.2020 03:44 15,8 C 17,4 C 25,3 C 84 % 67 % 1008,8 hPa 0,0 l/m 0,5 km/h (0 Bft) O 90 13,1 C 15,8 C 0,0 km/h (0 Bft)
02.07.2020 03:42 15,8 C 17,3 C 25,3 C 84 % 67 % 1008,8 hPa 0,0 l/m 1,2 km/h (1 Bft) O 90 13,1 C 15,8 C 0,0 km/h (0 Bft)
02.07.2020 03:40 15,8 C 17,3 C 25,3 C 84 % 67 % 1008,8 hPa 0,0 l/m 1,7 km/h (1 Bft) O-NO 67 13,1 C 15,8 C 0,0 km/h (0 Bft)
02.07.2020 03:38 15,9 C 17,0 C 25,3 C 84 % 67 % 1008,8 hPa 0,0 l/m 2,2 km/h (1 Bft) O-NO 67 13,2 C 15,9 C 0,0 km/h (0 Bft)
02.07.2020 03:36 15,9 C 17,3 C 25,3 C 84 % 67 % 1008,8 hPa 0,0 l/m 1,9 km/h (1 Bft) O-NO 67 13,2 C 15,9 C 2,4 km/h (1 Bft)
02.07.2020 03:34 15,9 C 17,3 C 25,3 C 84 % 67 % 1008,8 hPa 0,0 l/m 1,9 km/h (1 Bft) O-NO 67 13,2 C 15,9 C 4,6 km/h (1 Bft)
02.07.2020 03:32 15,8 C 17,0 C 25,3 C 84 % 67 % 1008,8 hPa 0,0 l/m 1,9 km/h (1 Bft) NO 45 13,1 C 15,8 C 4,6 km/h (1 Bft)
02.07.2020 03:30 15,8 C 17,0 C 25,3 C 84 % 67 % 1008,8 hPa 0,0 l/m 2,2 km/h (1 Bft) NO 45 13,1 C 15,8 C 3,4 km/h (1 Bft)
02.07.2020 03:28 15,8 C 17,3 C 25,3 C 84 % 67 % 1008,8 hPa 0,0 l/m 2,4 km/h (1 Bft) N-NO 22 13,1 C 15,8 C 3,1 km/h (1 Bft)
02.07.2020 03:26 15,9 C 17,2 C 25,3 C 84 % 67 % 1008,8 hPa 0,0 l/m 2,2 km/h (1 Bft) N-NO 22 13,2 C 15,9 C 3,1 km/h (1 Bft)
02.07.2020 03:24 15,9 C 17,3 C 25,3 C 84 % 67 % 1008,8 hPa 0,0 l/m 2,2 km/h (1 Bft) N-NW 337 13,2 C 15,9 C 4,1 km/h (1 Bft)
02.07.2020 03:22 15,9 C 17,2 C 25,3 C 84 % 67 % 1008,8 hPa 0,0 l/m 2,2 km/h (1 Bft) N-NO 22 13,2 C 15,9 C 5,3 km/h (1 Bft)
02.07.2020 03:20 15,9 C 17,2 C 25,3 C 84 % 67 % 1008,8 hPa 0,0 l/m 1,7 km/h (1 Bft) N-NO 22 13,2 C 15,9 C 5,3 km/h (1 Bft)
02.07.2020 03:18 15,9 C 17,3 C 25,3 C 84 % 67 % 1008,8 hPa 0,0 l/m 1,2 km/h (1 Bft) N-NO 22 13,2 C 15,9 C 3,6 km/h (1 Bft)
02.07.2020 03:16 16,0 C 17,3 C 25,4 C 83 % 67 % 1008,8 hPa 0,0 l/m 1,2 km/h (1 Bft) N-NO 22 13,1 C 16,0 C 0,0 km/h (0 Bft)
02.07.2020 03:14 16,0 C 17,4 C 25,3 C 83 % 67 % 1009,1 hPa 0,0 l/m 1,9 km/h (1 Bft) N-NO 22 13,1 C 16,0 C 2,9 km/h (1 Bft)
02.07.2020 03:12 16,0 C 17,3 C 25,3 C 83 % 67 % 1009,1 hPa 0,0 l/m 2,7 km/h (1 Bft) N-NO 22 13,1 C 16,0 C 2,9 km/h (1 Bft)
02.07.2020 03:10 15,8 C 17,3 C 25,3 C 84 % 67 % 1009,1 hPa 0,0 l/m 2,7 km/h (1 Bft) NO 45 13,1 C 15,8 C 3,4 km/h (1 Bft)
02.07.2020 03:08 15,8 C 17,4 C 25,3 C 84 % 67 % 1009,1 hPa 0,0 l/m 2,4 km/h (1 Bft) N 360 13,1 C 15,8 C 4,1 km/h (1 Bft)
02.07.2020 03:06 15,8 C 17,7 C 25,4 C 84 % 67 % 1009,1 hPa 0,0 l/m 1,4 km/h (1 Bft) N-NO 22 13,1 C 15,8 C 4,1 km/h (1 Bft)
02.07.2020 03:04 15,8 C 17,7 C 25,4 C 84 % 67 % 1009,1 hPa 0,0 l/m 1,4 km/h (1 Bft) N-NO 22 13,1 C 15,8 C 4,1 km/h (1 Bft)
02.07.2020 03:02 15,8 C 17,7 C 25,4 C 84 % 67 % 1009,1 hPa 0,0 l/m 1,4 km/h (1 Bft) N-NO 22 13,1 C 15,8 C 4,1 km/h (1 Bft)
02.07.2020 03:00 15,9 C 17,7 C 25,3 C 84 % 67 % 1009,1 hPa 0,0 l/m 1,7 km/h (1 Bft) SO 135 13,2 C 15,9 C 2,9 km/h (1 Bft)
02.07.2020 02:58 15,9 C 17,8 C 25,3 C 84 % 67 % 1009,1 hPa 0,0 l/m 1,7 km/h (1 Bft) N-NO 22 13,2 C 15,9 C 2,9 km/h (1 Bft)
02.07.2020 02:56 15,9 C 17,8 C 25,4 C 84 % 67 % 1009,1 hPa 0,0 l/m 1,2 km/h (1 Bft) O-NO 67 13,2 C 15,9 C 3,6 km/h (1 Bft)
02.07.2020 02:54 16,0 C 17,7 C 25,4 C 83 % 67 % 1009,3 hPa 0,0 l/m 1,2 km/h (1 Bft) O-NO 67 13,1 C 16,0 C 3,6 km/h (1 Bft)
02.07.2020 02:52 16,0 C 17,5 C 25,4 C 83 % 67 % 1009,3 hPa 0,0 l/m 0,7 km/h (0 Bft) NO 45 13,1 C 16,0 C 3,6 km/h (1 Bft)
02.07.2020 02:50 16,1 C 17,5 C 25,4 C 83 % 67 % 1009,3 hPa 0,0 l/m 0,5 km/h (0 Bft) O-NO 67 13,2 C 16,1 C 3,6 km/h (1 Bft)
02.07.2020 02:49 16,1 C 17,5 C 25,4 C 83 % 67 % 1009,3 hPa 0,0 l/m 0,5 km/h (0 Bft) O-NO 67 13,2 C 16,1 C 3,6 km/h (1 Bft)
02.07.2020 02:45 16,1 C 17,6 C 25,4 C 83 % 67 % 1009,3 hPa 0,0 l/m 0,0 km/h (0 Bft) N-NO 22 13,2 C 16,1 C 0,0 km/h (0 Bft)
02.07.2020 02:44 16,1 C 17,4 C 25,4 C 83 % 67 % 1009,3 hPa 0,0 l/m 0,0 km/h (0 Bft) N-NO 22 13,2 C 16,1 C 0,0 km/h (0 Bft)
02.07.2020 02:42 16,1 C 17,2 C 25,4 C 83 % 67 % 1009,3 hPa 0,0 l/m 0,0 km/h (0 Bft) N-NO 22 13,2 C 16,1 C 0,0 km/h (0 Bft)
02.07.2020 02:40 16,1 C 17,2 C 25,4 C 83 % 67 % 1009,3 hPa 0,0 l/m 0,0 km/h (0 Bft) N-NO 22 13,2 C 16,1 C 0,0 km/h (0 Bft)
02.07.2020 02:38 16,2 C 17,2 C 25,4 C 83 % 67 % 1009,3 hPa 0,0 l/m 0,0 km/h (0 Bft) N 360 13,3 C 16,2 C 0,0 km/h (0 Bft)
02.07.2020 02:36 16,2 C 17,4 C 25,4 C 83 % 67 % 1009,3 hPa 0,0 l/m 0,7 km/h (0 Bft) N-NW 337 13,3 C 16,2 C 0,0 km/h (0 Bft)
02.07.2020 02:34 16,2 C 17,5 C 25,4 C 83 % 67 % 1009,3 hPa 0,0 l/m 1,0 km/h (0 Bft) N-NO 22 13,3 C 16,2 C 0,0 km/h (0 Bft)
02.07.2020 02:32 16,2 C 17,5 C 25,4 C 83 % 67 % 1009,3 hPa 0,0 l/m 1,0 km/h (0 Bft) N-NO 22 13,3 C 16,2 C 0,0 km/h (0 Bft)
02.07.2020 02:30 16,1 C 17,6 C 25,4 C 83 % 67 % 1009,3 hPa 0,0 l/m 1,2 km/h (1 Bft) N-NO 22 13,2 C 16,1 C 2,4 km/h (1 Bft)
02.07.2020 02:28 16,1 C 17,7 C 25,4 C 83 % 67 % 1009,3 hPa 0,0 l/m 1,2 km/h (1 Bft) N-NW 337 13,2 C 16,1 C 4,1 km/h (1 Bft)
02.07.2020 02:26 16,2 C 17,8 C 25,4 C 83 % 67 % 1009,3 hPa 0,0 l/m 1,0 km/h (0 Bft) N-NW 337 13,3 C 16,2 C 4,1 km/h (1 Bft)
02.07.2020 02:24 16,2 C 17,8 C 25,5 C 83 % 67 % 1009,3 hPa 0,0 l/m 1,0 km/h (0 Bft) NO 45 13,3 C 16,2 C 2,4 km/h (1 Bft)
02.07.2020 02:22 16,2 C 17,6 C 25,4 C 83 % 67 % 1009,3 hPa 0,0 l/m 1,0 km/h (0 Bft) NO 45 13,3 C 16,2 C 2,4 km/h (1 Bft)
02.07.2020 02:20 16,2 C 17,4 C 25,5 C 83 % 67 % 1009,3 hPa 0,0 l/m 1,0 km/h (0 Bft) NO 45 13,3 C 16,2 C 2,4 km/h (1 Bft)
02.07.2020 02:18 16,2 C 17,5 C 25,5 C 83 % 67 % 1009,3 hPa 0,0 l/m 1,0 km/h (0 Bft) NO 45 13,3 C 16,2 C 0,0 km/h (0 Bft)
02.07.2020 02:16 16,3 C 17,7 C 25,5 C 83 % 67 % 1009,3 hPa 0,0 l/m 1,0 km/h (0 Bft) N-NO 22 13,4 C 16,3 C 2,9 km/h (1 Bft)
02.07.2020 02:14 16,4 C 18,0 C 25,5 C 83 % 67 % 1009,4 hPa 0,0 l/m 1,2 km/h (1 Bft) NO 45 13,5 C 16,4 C 2,9 km/h (1 Bft)
02.07.2020 02:12 16,4 C 17,8 C 25,5 C 83 % 67 % 1009,4 hPa 0,0 l/m 0,7 km/h (0 Bft) O-NO 67 13,5 C 16,4 C 2,7 km/h (1 Bft)
02.07.2020 02:10 16,5 C 17,9 C 25,5 C 83 % 67 % 1009,4 hPa 0,0 l/m 0,5 km/h (0 Bft) O-NO 67 13,6 C 16,5 C 0,0 km/h (0 Bft)
02.07.2020 02:08 16,5 C 17,9 C 25,5 C 83 % 67 % 1009,4 hPa 0,0 l/m 0,5 km/h (0 Bft) O-SO 112 13,6 C 16,5 C 2,7 km/h (1 Bft)
02.07.2020 02:06 16,5 C 17,8 C 25,5 C 83 % 67 % 1009,4 hPa 0,0 l/m 0,7 km/h (0 Bft) O-SO 112 13,6 C 16,5 C 3,1 km/h (1 Bft)
02.07.2020 02:04 16,5 C 17,8 C 25,5 C 83 % 67 % 1009,4 hPa 0,0 l/m 0,7 km/h (0 Bft) NO 45 13,6 C 16,5 C 3,1 km/h (1 Bft)
02.07.2020 02:02 16,5 C 17,9 C 25,5 C 83 % 66 % 1009,4 hPa 0,0 l/m 0,5 km/h (0 Bft) NW 315 13,6 C 16,5 C 0,0 km/h (0 Bft)
02.07.2020 02:00 16,5 C 17,7 C 25,5 C 83 % 67 % 1009,4 hPa 0,0 l/m 0,5 km/h (0 Bft) NW 315 13,6 C 16,5 C 0,0 km/h (0 Bft)
02.07.2020 01:58 16,5 C 17,5 C 25,5 C 83 % 66 % 1009,4 hPa 0,0 l/m 0,7 km/h (0 Bft) W-NW 292 13,6 C 16,5 C 2,4 km/h (1 Bft)
02.07.2020 01:56 16,5 C 17,6 C 25,5 C 83 % 67 % 1009,4 hPa 0,0 l/m 1,4 km/h (1 Bft) W-NW 292 13,6 C 16,5 C 2,9 km/h (1 Bft)
02.07.2020 01:54 16,5 C 17,7 C 25,5 C 83 % 66 % 1009,4 hPa 0,0 l/m 1,9 km/h (1 Bft) W-NW 292 13,6 C 16,5 C 2,9 km/h (1 Bft)
02.07.2020 01:52 16,5 C 17,8 C 25,5 C 83 % 66 % 1009,4 hPa 0,0 l/m 2,2 km/h (1 Bft) N-NW 337 13,6 C 16,5 C 0,0 km/h (0 Bft)
02.07.2020 01:50 16,5 C 18,2 C 25,5 C 83 % 66 % 1009,4 hPa 0,0 l/m 2,2 km/h (1 Bft) N-NW 337 13,6 C 16,5 C 0,0 km/h (0 Bft)
02.07.2020 01:49 16,5 C 18,2 C 25,5 C 83 % 66 % 1009,4 hPa 0,0 l/m 2,2 km/h (1 Bft) N-NW 337 13,6 C 16,5 C 0,0 km/h (0 Bft)
02.07.2020 01:45 16,4 C 18,1 C 25,5 C 83 % 66 % 1009,4 hPa 0,0 l/m 1,7 km/h (1 Bft) N-NO 22 13,5 C 16,4 C 4,6 km/h (1 Bft)
02.07.2020 01:44 16,3 C 17,9 C 25,5 C 82 % 66 % 1009,4 hPa 0,0 l/m 0,7 km/h (0 Bft) N-NO 22 13,2 C 16,3 C 5,1 km/h (1 Bft)
02.07.2020 01:42 16,7 C 17,5 C 25,5 C 83 % 66 % 1009,4 hPa 0,0 l/m 0,2 km/h (0 Bft) N-NO 22 13,8 C 16,7 C 3,4 km/h (1 Bft)
02.07.2020 01:40 16,7 C 17,5 C 25,6 C 83 % 66 % 1009,4 hPa 0,0 l/m 0,0 km/h (0 Bft) SO 135 13,8 C 16,7 C 0,0 km/h (0 Bft)
02.07.2020 01:38 16,7 C 17,6 C 25,6 C 83 % 66 % 1009,4 hPa 0,0 l/m 0,0 km/h (0 Bft) O-SO 112 13,8 C 16,7 C 0,0 km/h (0 Bft)
02.07.2020 01:36 16,7 C 17,8 C 25,6 C 83 % 66 % 1009,4 hPa 0,0 l/m 0,0 km/h (0 Bft) O-SO 112 13,8 C 16,7 C 0,0 km/h (0 Bft)
02.07.2020 01:34 16,7 C 17,7 C 25,6 C 83 % 66 % 1009,7 hPa 0,0 l/m 0,0 km/h (0 Bft) O 90 13,8 C 16,7 C 0,0 km/h (0 Bft)
02.07.2020 01:32 16,8 C 18,2 C 25,6 C 83 % 66 % 1009,7 hPa 0,0 l/m 0,0 km/h (0 Bft) O 90 13,9 C 16,8 C 0,0 km/h (0 Bft)
02.07.2020 01:30 16,8 C 18,3 C 25,6 C 83 % 66 % 1009,7 hPa 0,0 l/m 0,0 km/h (0 Bft) O 90 13,9 C 16,8 C 0,0 km/h (0 Bft)
02.07.2020 01:28 16,8 C 18,2 C 25,6 C 83 % 66 % 1009,7 hPa 0,0 l/m 0,0 km/h (0 Bft) O 90 13,9 C 16,8 C 0,0 km/h (0 Bft)
02.07.2020 01:26 16,9 C 18,4 C 25,6 C 83 % 66 % 1009,7 hPa 0,0 l/m 0,0 km/h (0 Bft) O 90 14,0 C 16,9 C 0,0 km/h (0 Bft)
02.07.2020 01:24 16,9 C 18,5 C 25,6 C 83 % 66 % 1009,7 hPa 0,0 l/m 0,0 km/h (0 Bft) O 90 14,0 C 16,9 C 0,0 km/h (0 Bft)
02.07.2020 01:22 17,0 C 18,6 C 25,6 C 83 % 66 % 1009,7 hPa 0,0 l/m 0,2 km/h (0 Bft) O 90 14,1 C 17,0 C 0,0 km/h (0 Bft)
02.07.2020 01:20 17,0 C 18,6 C 25,6 C 83 % 66 % 1009,7 hPa 0,0 l/m 0,2 km/h (0 Bft) O 90 14,1 C 17,0 C 0,0 km/h (0 Bft)
02.07.2020 01:18 17,1 C 18,6 C 25,7 C 83 % 66 % 1009,7 hPa 0,0 l/m 0,5 km/h (0 Bft) O 90 14,2 C 17,1 C 0,0 km/h (0 Bft)
02.07.2020 01:16 17,1 C 18,5 C 25,6 C 83 % 66 % 1009,7 hPa 0,0 l/m 0,5 km/h (0 Bft) O-NO 67 14,2 C 17,1 C 0,0 km/h (0 Bft)
02.07.2020 01:14 17,1 C 18,4 C 25,7 C 83 % 66 % 1009,8 hPa 0,0 l/m 0,5 km/h (0 Bft) O-NO 67 14,2 C 17,1 C 0,0 km/h (0 Bft)
02.07.2020 01:12 17,1 C 18,5 C 25,7 C 83 % 66 % 1009,8 hPa 0,0 l/m 0,5 km/h (0 Bft) O-NO 67 14,2 C 17,1 C 2,7 km/h (1 Bft)
02.07.2020 01:10 17,1 C 18,6 C 25,7 C 83 % 66 % 1009,8 hPa 0,0 l/m 0,2 km/h (0 Bft) O-NO 67 14,2 C 17,1 C 2,7 km/h (1 Bft)
02.07.2020 01:08 17,2 C 18,8 C 25,7 C 83 % 66 % 1009,8 hPa 0,0 l/m 0,0 km/h (0 Bft) O 90 14,3 C 17,2 C 0,0 km/h (0 Bft)
02.07.2020 01:06 17,2 C 18,7 C 25,7 C 83 % 66 % 1009,8 hPa 0,0 l/m 0,7 km/h (0 Bft) SO 135 14,3 C 17,2 C 0,0 km/h (0 Bft)
02.07.2020 01:04 17,2 C 18,5 C 25,7 C 83 % 66 % 1009,8 hPa 0,0 l/m 1,7 km/h (1 Bft) SO 135 14,3 C 17,2 C 0,0 km/h (0 Bft)
02.07.2020 01:02 17,2 C 18,5 C 25,7 C 83 % 66 % 1009,8 hPa 0,0 l/m 2,9 km/h (1 Bft) S 180 14,3 C 17,2 C 0,0 km/h (0 Bft)
02.07.2020 01:00 17,2 C 18,8 C 25,7 C 83 % 66 % 1009,8 hPa 0,0 l/m 2,9 km/h (1 Bft) S 180 14,3 C 17,2 C 0,0 km/h (0 Bft)
02.07.2020 00:58 17,3 C 18,8 C 25,7 C 82 % 66 % 1009,8 hPa 0,0 l/m 2,9 km/h (1 Bft) S-SO 157 14,2 C 17,3 C 8,0 km/h (2 Bft)
02.07.2020 00:56 17,3 C 18,7 C 25,7 C 82 % 66 % 1009,8 hPa 0,0 l/m 2,9 km/h (1 Bft) SO 135 14,2 C 17,3 C 7,2 km/h (2 Bft)
02.07.2020 00:54 17,3 C 18,6 C 25,8 C 82 % 66 % 1009,6 hPa 0,0 l/m 1,7 km/h (1 Bft) SO 135 14,2 C 17,3 C 7,2 km/h (2 Bft)
02.07.2020 00:52 17,3 C 18,6 C 25,8 C 82 % 66 % 1009,6 hPa 0,0 l/m 0,7 km/h (0 Bft) S-SO 157 14,2 C 17,3 C 5,1 km/h (1 Bft)
02.07.2020 00:50 17,3 C 18,7 C 25,8 C 82 % 66 % 1009,6 hPa 0,0 l/m 0,2 km/h (0 Bft) SO 135 14,2 C 17,3 C 2,4 km/h (1 Bft)
02.07.2020 00:48 17,4 C 18,5 C 25,8 C 82 % 66 % 1009,6 hPa 0,0 l/m 0,2 km/h (0 Bft) O-SO 112 14,3 C 17,4 C 0,0 km/h (0 Bft)
02.07.2020 00:46 17,3 C 18,3 C 25,8 C 82 % 66 % 1009,6 hPa 0,0 l/m 0,0 km/h (0 Bft) SO 135 14,2 C 17,3 C 0,0 km/h (0 Bft)
02.07.2020 00:44 17,3 C 18,6 C 25,8 C 82 % 66 % 1009,6 hPa 0,0 l/m 0,7 km/h (0 Bft) SO 135 14,2 C 17,3 C 0,0 km/h (0 Bft)
02.07.2020 00:42 17,3 C 18,7 C 25,9 C 82 % 66 % 1009,6 hPa 0,0 l/m 1,2 km/h (1 Bft) O-SO 112 14,2 C 17,3 C 0,0 km/h (0 Bft)
02.07.2020 00:40 17,4 C 18,7 C 25,9 C 82 % 66 % 1009,6 hPa 0,0 l/m 2,2 km/h (1 Bft) O 90 14,3 C 17,4 C 0,0 km/h (0 Bft)
02.07.2020 00:38 17,4 C 18,6 C 25,9 C 82 % 66 % 1009,6 hPa 0,0 l/m 2,2 km/h (1 Bft) O-SO 112 14,3 C 17,4 C 4,8 km/h (1 Bft)
02.07.2020 00:36 17,4 C 18,4 C 25,9 C 82 % 66 % 1009,6 hPa 0,0 l/m 2,4 km/h (1 Bft) O-SO 112 14,3 C 17,4 C 3,9 km/h (1 Bft)
02.07.2020 00:34 17,5 C 18,6 C 25,9 C 82 % 66 % 1009,6 hPa 0,0 l/m 2,2 km/h (1 Bft) SO 135 14,4 C 17,5 C 4,8 km/h (1 Bft)
02.07.2020 00:32 17,5 C 18,8 C 25,9 C 82 % 66 % 1009,6 hPa 0,0 l/m 1,7 km/h (1 Bft) SO 135 14,4 C 17,5 C 4,8 km/h (1 Bft)
02.07.2020 00:30 17,5 C 18,6 C 25,9 C 82 % 66 % 1009,6 hPa 0,0 l/m 1,2 km/h (1 Bft) O-SO 112 14,4 C 17,5 C 4,8 km/h (1 Bft)
02.07.2020 00:28 17,6 C 18,6 C 25,9 C 82 % 66 % 1009,6 hPa 0,0 l/m 0,7 km/h (0 Bft) O-NO 67 14,5 C 17,6 C 2,7 km/h (1 Bft)
02.07.2020 00:26 17,5 C 18,7 C 25,9 C 82 % 66 % 1009,6 hPa 0,0 l/m 1,0 km/h (0 Bft) O-NO 67 14,4 C 17,5 C 2,7 km/h (1 Bft)
02.07.2020 00:24 17,5 C 18,8 C 26,0 C 82 % 66 % 1009,6 hPa 0,0 l/m 1,4 km/h (1 Bft) W 270 14,4 C 17,5 C 4,3 km/h (1 Bft)
02.07.2020 00:22 17,6 C 18,9 C 26,0 C 82 % 66 % 1009,6 hPa 0,0 l/m 1,7 km/h (1 Bft) W-SW 247 14,5 C 17,6 C 4,3 km/h (1 Bft)
02.07.2020 00:20 17,7 C 18,9 C 26,0 C 82 % 66 % 1009,6 hPa 0,0 l/m 1,4 km/h (1 Bft) W-SW 247 14,6 C 17,7 C 0,0 km/h (0 Bft)
02.07.2020 00:18 17,7 C 18,8 C 26,0 C 82 % 65 % 1009,6 hPa 0,0 l/m 1,2 km/h (1 Bft) S 180 14,6 C 17,7 C 3,9 km/h (1 Bft)
02.07.2020 00:16 17,7 C 18,9 C 26,0 C 82 % 65 % 1009,6 hPa 0,0 l/m 1,2 km/h (1 Bft) S 180 14,6 C 17,7 C 4,6 km/h (1 Bft)
02.07.2020 00:14 17,7 C 18,9 C 26,1 C 82 % 66 % 1009,8 hPa 0,0 l/m 1,2 km/h (1 Bft) W-SW 247 14,6 C 17,7 C 4,6 km/h (1 Bft)
02.07.2020 00:12 17,7 C 19,0 C 26,1 C 82 % 66 % 1009,8 hPa 0,0 l/m 0,7 km/h (0 Bft) W 270 14,6 C 17,7 C 3,1 km/h (1 Bft)
02.07.2020 00:10 17,7 C 19,0 C 26,1 C 82 % 66 % 1009,8 hPa 0,0 l/m 0,7 km/h (0 Bft) N-NO 22 14,6 C 17,7 C 0,0 km/h (0 Bft)
02.07.2020 00:08 17,8 C 18,9 C 26,2 C 82 % 66 % 1009,8 hPa 0,0 l/m 1,0 km/h (0 Bft) S 180 14,7 C 17,8 C 0,0 km/h (0 Bft)
02.07.2020 00:06 17,8 C 18,9 C 26,2 C 82 % 66 % 1009,8 hPa 0,0 l/m 1,0 km/h (0 Bft) S 180 14,7 C 17,8 C 0,0 km/h (0 Bft)
02.07.2020 00:04 17,8 C 18,9 C 26,2 C 82 % 66 % 1009,8 hPa 0,0 l/m 1,0 km/h (0 Bft) S 180 14,7 C 17,8 C 0,0 km/h (0 Bft)
02.07.2020 00:02 17,8 C 18,9 C 26,2 C 82 % 66 % 1009,8 hPa 0,0 l/m 1,0 km/h (0 Bft) S 180 14,7 C 17,8 C 0,0 km/h (0 Bft)
02.07.2020 00:00 17,8 C 19,1 C 26,2 C 82 % 66 % 1009,8 hPa 0,0 l/m 1,0 km/h (0 Bft) SW 225 14,7 C 17,8 C 0,0 km/h (0 Bft)
_ Min-Zeit 04:28 03:50 07:00 00:00 06:30 03:56 - 00:46 - - 04:28 04:28 00:00
Minimum _ 15,3 C 16,9 C 24,6 C 82 % 63 % 1008,5 hPa - 0,0 km/h (0 Bft) - - 12,6 C 15,3 C 0,0 km/h (0 Bft)
_ Max-Zeit 00:00 00:00 00:00 04:52 01:56 07:36 04:16 05:06 - - 07:42 00:00 05:04
Maximum _ 17,8 C 19,1 C 26,2 C 85 % 67 % 1010,7 hPa 0,1 l/m 4,3 km/h
S-SO (1 Bft)
- - 15,1 C 17,8 C 10,6 km/h
S (2 Bft)
Durchschnitt _ 16,3 C 18,1 C 25,3 C 84 % 66 % 1009,3 hPa #0,1 l/m 1,2 km/h (1 Bft) S-SO - 13,5 C 16,3 C 2,4 km/h (1 Bft)